Location: Most
(50.5133°N, 13.6207°E)
Time: 15:24:30
(UTC+02:00)

ISS - Pass Details

Date: 02 October 2021
Orbit: 417 x 423 km, 51.6° (Epoch: 24 October)

Event Time Altitude Azimuth Distance (km) Brightness Sun altitude
Rises 19:28:50 0° 286° (WNW) 2,365 2.1 -8.4°
Reaches altitude 10° 19:30:56 10° 283° (WNW) 1,500 0.7 -8.7°
Maximum altitude 19:34:15 60° 203° (SSW) 484 -3.4 -9.3°
Enters shadow 19:37:21 12° 123° (ESE) 1,402 -1.6 -9.7°
